[[{"header":{"parameterUnit":"m.s-1","parameterCategory":1,"la1":30.2991,"la2":30.254,"lo1":-89.0895,"lo2":-89.0444,"dy":0.0017,"dx":0.0017,"nx":28,"ny":28,"refTime":"2024-10-21T09:00:00:Z","depth":0,"parameterNumber":2,"parameterNumberName":"U-component_of_WINDS"},"data":[0,0,0,0,0,0,0,0,0,0,0,0,0,0,0,0,0,0,0,0,0,0,0,0,0,0,0,0,0,0,0,0,0,0,0,0,0,0,0,0,0,0,0,0,0,0,0,0,0,0,0,0,0,0,0,0,0,0,-3.3023,-3.3022,0,-3.2967,-3.2966,-3.2965,-3.2924,-3.2923,-3.2923,-3.2923,-3.2866,-3.2864,-3.2863,0,0,0,0,0,0,0,0,0,0,0,0,0,-3.3095,-3.3094,-3.3023,-3.3022,-3.3021,-3.2967,-3.2966,-3.2965,-3.2924,-3.2923,-3.2923,-3.2923,-3.2866,-3.2864,-3.2863,0,0,0,0,0,0,0,0,0,0,0,0,0,-3.3054,-3.3094,-3.3023,-3.2994,-3.2991,-3.2967,-3.2966,-3.2965,-3.2924,-3.2923,-3.2923,-3.2922,-3.2866,-3.2865,-3.2863,-3.2863,0,0,-3.2857,-3.2857,0,0,0,0,0,0,0,0,-3.3056,-3.3051,-3.2999,-3.2996,-3.2993,-3.2952,-3.297,-3.2931,-3.2924,-3.2949,-3.2923,-3.2922,-3.2895,-3.289,-3.2881,-3.286,-3.2858,-3.2857,-3.2856,-3.2855,-3.2855,0,0,0,0,0,0,0,-3.3059,-3.3054,-3.3,-3.2998,-3.2994,-3.2984,-3.2978,-3.2963,-3.2926,-3.2947,-3.2944,-3.2938,-3.2893,-3.2883,-3.2879,-3.2857,-3.2857,-3.2856,-3.2855,-3.2854,-3.2835,-3.2836,0,0,0,0,0,0,-3.3067,-3.3056,-3.3002,-3.2999,-3.3024,-3.2984,-3.2976,-3.2965,-3.2926,-3.2919,-3.2939,-3.2936,-3.2886,-3.2882,-3.2877,-3.2876,-3.2855,-3.2854,-3.2853,-3.2834,-3.2835,-3.2836,0,0,0,0,0,0,-3.3068,-3.3062,-3.3004,-3.3027,-3.3019,-3.2983,-3.2971,-3.2964,-3.2955,-3.2919,-3.2913,-3.2935,-3.2886,-3.288,-3.2867,-3.2873,-3.2853,-3.2851,-3.2834,-3.2835,-3.2835,-3.2873,0,0,0,0,0,0,-3.3071,-3.3063,-3.3062,-3.3027,-3.3018,-3.2995,-3.2971,-3.2964,-3.2952,-3.2948,-3.2914,-3.2908,-3.2885,-3.287,-3.2865,-3.2871,-3.285,-3.2833,-3.2834,-3.2835,-3.2871,-3.2875,-3.2878,0,0,0,0,0,-3.3073,-3.3074,-3.3062,-3.3056,-3.3016,-3.2995,-3.299,-3.2963,-3.2952,-3.2952,-3.2929,-3.2909,-3.2873,-3.2869,-3.2863,-3.2868,-3.2832,-3.2834,-3.2835,-3.2869,-3.2874,-3.2878,0,0,0,0,0,0,-3.3111,-3.3069,-3.3055,-3.3045,-3.3024,-3.2988,-3.2986,-3.2968,-3.295,-3.2948,-3.2915,-3.2908,-3.2899,-3.2882,-3.2878,-3.2867,-3.2851,-3.2851,-3.2879,-3.2883,-3.2886,-3.2891,-3.2848,0,0,0,0,0,-3.3118,-3.3105,-3.3069,-3.3063,-3.3054,-3.3022,-3.3012,-3.2993,-3.297,-3.2961,-3.2938,-3.2916,-3.29,-3.289,-3.2874,-3.2868,-3.2861,-3.2869,-3.2873,-3.2876,-3.2877,-3.2875,-3.2878,-3.284,-3.284,-3.284,0,0,-3.3132,-3.3108,-3.3101,-3.307,-3.3052,-3.304,-3.3015,-3.3002,-3.2993,-3.2959,-3.2946,-3.2928,-3.2903,-3.2894,-3.2889,-3.288,-3.2886,-3.2877,-3.288,-3.2879,-3.2876,-3.288,-3.2883,-3.2841,-3.2841,-3.284,0,0,-3.3152,-3.3132,-3.3126,-3.3109,-3.3081,-3.3061,-3.3059,-3.3027,-3.3014,-3.3,-3.2975,-3.2964,-3.2937,-3.292,-3.2908,-3.2924,-3.2906,-3.292,-3.2939,-3.2938,-3.2941,-3.2943,-3.2951,-3.2954,-3.292,-3.2921,-3.2921,0,-3.3174,-3.3154,-3.3125,-3.3115,-3.3103,-3.3072,-3.3067,-3.3051,-3.3019,-3.3012,-3.3002,-3.2969,-3.2949,-3.2937,-3.2942,-3.2932,-3.2931,-3.2924,-3.2942,-3.2945,-3.2947,-3.2954,-3.2956,-3.2922,-3.2922,-3.2922,-3.2922,0,-3.3182,-3.3169,-3.3168,-3.3139,-3.3127,-3.3119,-3.309,-3.3081,-3.3063,-3.3044,-3.3032,-3.3007,-3.2986,-3.2982,-3.2964,-3.2968,-3.2964,-3.2949,-3.2931,-3.2953,-3.2959,-3.2961,-3.2925,-3.2925,-3.2924,-3.2923,0,0,-3.3223,-3.3181,-3.3181,-3.3168,-3.3137,-3.3127,-3.3118,-3.3098,-3.3091,-3.3071,-3.3064,-3.3043,-3.3029,-3.3016,-3.2996,-3.2995,-3.3012,-3.298,-3.2979,-3.2988,-3.3017,-3.303,-3.3033,-3.2999,-3.3,-3.3,-3.302,0,-3.324,-3.3223,-3.3198,-3.3189,-3.3178,-3.315,-3.3142,-3.3123,-3.3105,-3.3093,-3.3073,-3.306,-3.3042,-3.3034,-3.3031,-3.301,-3.3017,-3.3008,-3.2994,-3.2994,-3.3002,-3.3036,-3.3048,-3.3068,-3.3022,-3.3022,-3.3022,0,-3.3256,-3.3239,-3.323,-3.3201,-3.3195,-3.3189,-3.317,-3.3158,-3.3137,-3.3124,-3.311,-3.3089,-3.308,-3.3064,-3.3052,-3.3047,-3.3039,-3.3028,-3.3028,-3.3027,-3.301,-3.3037,-3.3074,-3.3077,-3.3025,-3.3025,-3.3025,0,-3.3289,-3.3263,-3.3255,-3.3245,-3.3211,-3.3208,-3.3194,-3.3171,-3.3162,-3.3145,-3.3138,-3.312,-3.3111,-3.3098,-3.3074,-3.3064,-3.3065,-3.3046,-3.3055,-3.3056,-3.3057,-3.3058,-3.3095,-3.305,-3.305,-3.305,-3.305,0,-3.3311,-3.3306,-3.327,-3.3265,-3.326,-3.3232,-3.3228,-3.3211,-3.3192,-3.3184,-3.3158,-3.3151,-3.3119,-3.3108,-3.3089,-3.3083,-3.3079,-3.3069,-3.3064,-3.3072,-3.3074,-3.3068,-3.3066,-3.3051,-3.3051,-3.3051,-3.3051,0,-3.3347,-3.3322,-3.3311,-3.3281,-3.3273,-3.3271,-3.3245,-3.324,-3.3221,-3.3212,-3.3208,-3.3179,-3.3166,-3.314,-3.3119,-3.3107,-3.3106,-3.3096,-3.3113,-3.3111,-3.3122,-3.3122,-3.3158,-3.3162,-3.3113,-3.3114,-3.3114,0,-3.3362,-3.3359,-3.3329,-3.3322,-3.3309,-3.3298,-3.3288,-3.326,-3.3252,-3.3228,-3.3226,-3.3211,-3.3197,-3.3178,-3.3155,-3.314,-3.3131,-3.3145,-3.3129,-3.3138,-3.3134,-3.3135,-3.3135,-3.3149,-3.3149,-3.315,-3.315,0,-3.3394,-3.3382,-3.3369,-3.3353,-3.3342,-3.3328,-3.3312,-3.3308,-3.3277,-3.3268,-3.3255,-3.3245,-3.3225,-3.3211,-3.3193,-3.3178,-3.316,-3.3156,-3.3157,-3.3166,-3.3177,-3.3173,-3.3125,-3.3155,-3.3155,-3.3154,-3.3154,-3.3154,-3.3421,-3.3418,-3.3397,-3.3384,-3.3369,-3.3356,-3.335,-3.3331,-3.332,-3.3301,-3.3286,-3.3275,-3.3255,-3.3229,-3.3216,-3.3208,-3.3198,-3.32,-3.3201,-3.3202,-3.3207,-3.3177,-3.3204,-3.3204,-3.3203,-3.3203,-3.3203,0,-3.3453,-3.3438,-3.3427,-3.3406,-3.3397,-3.338,-3.3362,-3.3356,-3.3346,-3.3329,-3.3317,-3.3303,-3.329,-3.3267,-3.3252,-3.325,-3.3242,-3.3247,-3.3248,-3.3246,-3.3214,-3.3215,-3.3255,-3.3255,-3.3255,-3.3255,-3.3255,-3.3255,-3.3468,-3.3462,-3.3448,-3.3436,-3.3421,-3.341,-3.3402,-3.339,-3.3376,-3.3362,-3.3351,-3.3337,-3.3318,-3.3302,-3.329,-3.3284,-3.328,-3.3289,-3.3281,-3.3252,-3.3247,-3.3243,-3.3244,-3.3289,-3.3289,-3.3313,-3.3313,-3.3313]},{"header":{"parameterUnit":"m.s-1","parameterCategory":1,"la1":30.2991,"la2":30.254,"lo1":-89.0895,"lo2":-89.0444,"dy":0.0017,"dx":0.0017,"nx":28,"ny":28,"refTime":"2024-10-21T09:00:00:Z","depth":0,"parameterNumber":3,"parameterNumberName":"V-component_of_WINDS"},"data":[0,0,0,0,0,0,0,0,0,0,0,0,0,0,0,0,0,0,0,0,0,0,0,0,0,0,0,0,0,0,0,0,0,0,0,0,0,0,0,0,0,0,0,0,0,0,0,0,0,0,0,0,0,0,0,0,0,0,-0.9109,-0.9109,0,-0.9135,-0.9135,-0.9135,-0.9104,-0.9103,-0.9102,-0.9101,-0.9127,-0.9128,-0.913,0,0,0,0,0,0,0,0,0,0,0,0,0,-0.9031,-0.9032,-0.9109,-0.9109,-0.9109,-0.9135,-0.9135,-0.9135,-0.9104,-0.9103,-0.9102,-0.91,-0.9126,-0.9128,-0.913,0,0,0,0,0,0,0,0,0,0,0,0,0,-0.9061,-0.9033,-0.9109,-0.9097,-0.9096,-0.9135,-0.9135,-0.9135,-0.9105,-0.9103,-0.9101,-0.91,-0.9125,-0.9128,-0.913,-0.9181,0,0,-0.9139,-0.914,0,0,0,0,0,0,0,0,-0.906,-0.9064,-0.9098,-0.9098,-0.9097,-0.9114,-0.9117,-0.9151,-0.9105,-0.9101,-0.9101,-0.9099,-0.9124,-0.9127,-0.9135,-0.9183,-0.9184,-0.9139,-0.914,-0.9141,-0.9142,0,0,0,0,0,0,0,-0.9058,-0.9063,-0.9119,-0.9099,-0.9098,-0.909,-0.9092,-0.9123,-0.9122,-0.9102,-0.9099,-0.9103,-0.9123,-0.9133,-0.9136,-0.9184,-0.9139,-0.9141,-0.9143,-0.9144,-0.9275,-0.9277,0,0,0,0,0,0,-0.9057,-0.9061,-0.9118,-0.912,-0.9074,-0.9093,-0.9095,-0.9111,-0.9122,-0.9122,-0.9104,-0.9101,-0.9129,-0.9132,-0.9136,-0.9198,-0.9141,-0.9144,-0.9145,-0.9273,-0.9276,-0.9278,0,0,0,0,0,0,-0.9055,-0.9062,-0.9117,-0.909,-0.9096,-0.9096,-0.9113,-0.9112,-0.9122,-0.9124,-0.9123,-0.9115,-0.9128,-0.9133,-0.9171,-0.9198,-0.9145,-0.9148,-0.9271,-0.9274,-0.9277,-0.9321,0,0,0,0,0,0,-0.9053,-0.9062,-0.9082,-0.9091,-0.9098,-0.9152,-0.9115,-0.9114,-0.9126,-0.9123,-0.9133,-0.9133,-0.9127,-0.9167,-0.9173,-0.9201,-0.915,-0.9269,-0.9272,-0.9276,-0.9317,-0.9325,-0.9332,0,0,0,0,0,-0.9051,-0.9093,-0.9083,-0.909,-0.9123,-0.9153,-0.9157,-0.915,-0.9129,-0.9149,-0.915,-0.9133,-0.9194,-0.9171,-0.9178,-0.9207,-0.9267,-0.9271,-0.9275,-0.9314,-0.9323,-0.9332,0,0,0,0,0,0,-0.9087,-0.9094,-0.9083,-0.9129,-0.9141,-0.9148,-0.9173,-0.916,-0.9177,-0.9173,-0.9162,-0.9165,-0.9206,-0.9209,-0.9184,-0.9257,-0.9227,-0.9233,-0.9254,-0.9263,-0.927,-0.9269,-0.9152,0,0,0,0,0,-0.91,-0.9125,-0.9129,-0.917,-0.9176,-0.9173,-0.9186,-0.9179,-0.9191,-0.9196,-0.92,-0.9211,-0.9233,-0.9248,-0.9268,-0.9316,-0.9319,-0.934,-0.9347,-0.9353,-0.9359,-0.9386,-0.9396,-0.9292,-0.9292,-0.9292,0,0,-0.9128,-0.9135,-0.9151,-0.9177,-0.9185,-0.9211,-0.9178,-0.9206,-0.9225,-0.92,-0.9237,-0.924,-0.9252,-0.9296,-0.9315,-0.9301,-0.9388,-0.9359,-0.9363,-0.9366,-0.9392,-0.9402,-0.9411,-0.9295,-0.9294,-0.9294,0,0,-0.9193,-0.92,-0.9235,-0.9244,-0.9257,-0.9255,-0.9263,-0.9272,-0.9274,-0.931,-0.9292,-0.9313,-0.9351,-0.9361,-0.9371,-0.9438,-0.9424,-0.9445,-0.9484,-0.9511,-0.9519,-0.9526,-0.9552,-0.9562,-0.945,-0.945,-0.945,0,-0.9227,-0.9265,-0.9255,-0.9285,-0.9297,-0.9275,-0.9311,-0.9319,-0.9338,-0.9347,-0.9329,-0.9377,-0.9383,-0.943,-0.9446,-0.9454,-0.9464,-0.9445,-0.9519,-0.9526,-0.9533,-0.9557,-0.9567,-0.9453,-0.9453,-0.9452,-0.9452,0,-0.9306,-0.9333,-0.936,-0.9379,-0.9394,-0.9427,-0.9421,-0.9437,-0.9428,-0.9428,-0.9465,-0.9472,-0.9494,-0.9503,-0.9495,-0.9549,-0.954,-0.9521,-0.949,-0.9546,-0.9569,-0.9578,-0.9457,-0.9456,-0.9455,-0.9454,0,0,-0.9397,-0.941,-0.942,-0.9429,-0.9441,-0.9461,-0.9492,-0.9514,-0.9529,-0.9541,-0.9568,-0.96,-0.9583,-0.9594,-0.9585,-0.9609,-0.9664,-0.9587,-0.9587,-0.9603,-0.9726,-0.9742,-0.9753,-0.9653,-0.9655,-0.9656,-0.9726,0,-0.9463,-0.9519,-0.951,-0.9564,-0.9589,-0.9567,-0.9595,-0.9605,-0.9605,-0.9626,-0.9625,-0.9649,-0.9623,-0.963,-0.9652,-0.9653,-0.9689,-0.9647,-0.9679,-0.968,-0.9679,-0.9765,-0.9782,-0.9847,-0.9734,-0.9736,-0.9737,0,-0.9549,-0.9567,-0.9623,-0.9632,-0.9642,-0.9667,-0.9686,-0.9706,-0.9717,-0.9715,-0.9727,-0.9715,-0.9746,-0.9713,-0.9756,-0.9728,-0.974,-0.9742,-0.9745,-0.9749,-0.9714,-0.9774,-0.9868,-0.9879,-0.9751,-0.9749,-0.9748,0,-0.9613,-0.9649,-0.9688,-0.9696,-0.9706,-0.9725,-0.973,-0.9739,-0.9752,-0.9768,-0.9777,-0.9796,-0.9807,-0.9822,-0.9815,-0.9792,-0.986,-0.9827,-0.9861,-0.9861,-0.9878,-0.9878,-0.9978,-0.9882,-0.9882,-0.9882,-0.9881,0,-0.969,-0.9725,-0.9717,-0.9741,-0.978,-0.9769,-0.9808,-0.981,-0.9819,-0.9843,-0.9824,-0.9847,-0.9835,-0.9857,-0.9851,-0.9889,-0.9893,-0.9893,-0.9892,-0.9896,-0.9897,-0.9906,-0.9902,-0.9884,-0.9884,-0.9883,-0.9883,0,-0.9768,-0.9763,-0.9805,-0.9811,-0.9813,-0.9842,-0.9848,-0.987,-0.9868,-0.9899,-0.9905,-0.9902,-0.9927,-0.9921,-0.9947,-0.9943,-0.9991,-0.9983,-0.9988,-0.9987,-1.0022,-1.002,-1.0134,-1.0149,-1.0041,-1.0042,-1.0043,0,-0.9819,-0.9846,-0.9855,-0.9871,-0.9877,-0.9901,-0.9915,-0.9904,-0.992,-0.9934,-0.9955,-0.9978,-0.9996,-1.0037,-1.0037,-1.0057,-1.005,-1.0089,-1.0054,-1.0058,-1.0054,-1.0053,-1.0057,-1.0097,-1.0098,-1.0099,-1.01,0,-0.991,-0.9906,-0.9927,-0.9948,-0.9965,-0.998,-0.9993,-1.0007,-0.9997,-1.0015,-1.004,-1.0054,-1.0082,-1.0105,-1.0124,-1.0128,-1.0113,-1.011,-1.012,-1.0126,-1.0129,-1.013,-1.001,-1.0109,-1.0108,-1.0107,-1.0107,-1.0106,-0.9978,-1.0002,-1.0012,-1.0036,-1.0045,-1.0058,-1.008,-1.008,-1.0101,-1.0124,-1.0115,-1.0145,-1.0155,-1.0178,-1.0185,-1.0208,-1.0193,-1.0206,-1.021,-1.0214,-1.022,-1.0124,-1.0211,-1.021,-1.021,-1.021,-1.021,0,-1.007,-1.0076,-1.0098,-1.0118,-1.0136,-1.0119,-1.0133,-1.015,-1.0177,-1.0187,-1.0205,-1.0235,-1.0257,-1.0259,-1.028,-1.0298,-1.0291,-1.0304,-1.0304,-1.0306,-1.023,-1.0221,-1.0309,-1.0309,-1.0309,-1.0309,-1.0309,-1.0309,-1.0121,-1.016,-1.0158,-1.0201,-1.0206,-1.0236,-1.0245,-1.0257,-1.0265,-1.0299,-1.0318,-1.0319,-1.0326,-1.0347,-1.0367,-1.0367,-1.0377,-1.0393,-1.039,-1.032,-1.0311,-1.0301,-1.0293,-1.0394,-1.0394,-1.0463,-1.0464,-1.0465]}]]